DW1546 Weather Reports


time (UTC)temp
F
wind
direction
speed
knots
gust
knots
rain 1hr
in
rain 24hr
in
rain mn
in
humidity
%
barometer
mb
20260504213052 75 167 1.7 0.0 0.00 0.00 0.00 35 1010.1
20260504211544 75 199 3.5 0.0 0.00 0.00 0.00 34 1010.2
20260504210053 74 252 2.6 0.0 0.00 0.00 0.00 35 1010.2
20260504204619 75 186 1.7 0.0 0.00 0.00 0.00 34 1010.2
20260504203042 75 218 3.5 0.0 0.00 0.00 0.00 34 1010.2
20260504201540 75 237 2.6 0.0 0.00 0.00 0.00 35 1010.5
20260504200041 76 254 2.6 0.0 0.00 0.00 0.00 33 1010.6
20260504194637 76 225 0.9 0.0 0.00 0.00 0.00 33 1010.9
20260504193034 75 285 1.7 0.0 0.00 0.00 0.00 34 1011.2
20260504191531 74 205 4.3 0.0 0.00 0.00 0.00 35 1011.4
20260504190035 74 183 2.6 0.0 0.00 0.00 0.00 34 1011.8
20260504184528 74 251 3.5 0.0 0.00 0.00 0.00 34 1012.1
20260504183029 74 131 1.7 0.0 0.00 0.00 0.00 34 1012.2
20260504181525 74 296 2.6 0.0 0.00 0.00 0.00 34 1012.4
20260504180023 73 246 3.5 0.0 0.00 0.00 0.00 34 1012.6
20260504174520 73 243 2.6 0.0 0.00 0.00 0.00 35 1012.7
20260504173020 73 198 1.7 0.0 0.00 0.00 0.00 32 1012.8
20260504171533 72 117 2.6 0.0 0.00 0.00 0.00 33 1013.0
20260504081525 42 232 0.0 0.0 0.00 0.00 0.00 92 1016.1
20260504050000 40 232 0.0 0.0 0.00 0.00 0.00 84 1016.4
20260504044605 40 232 0.0 0.0 0.00 0.00 0.00 84 1016.3
20260504043100 40 232 0.0 0.0 0.00 0.00 0.00 83 1016.4
20260504041556 41 232 0.0 0.0 0.00 0.00 0.00 82 1016.4
20260504040054 41 232 0.0 0.0 0.00 0.00 0.00 80 1016.3
20260504034608 42 232 0.0 0.0 0.00 0.00 0.00 78 1016.4
20260504033053 42 232 0.0 0.0 0.00 0.00 0.00 77 1016.3
20260504031553 43 232 0.0 0.0 0.00 0.00 0.00 76 1016.1
20260504030053 43 232 0.0 0.0 0.00 0.00 0.00 75 1015.8
20260504024551 44 232 0.0 0.0 0.00 0.00 0.00 72 1015.8
20260504023051 45 232 0.0 0.0 0.00 0.00 0.00 71 1015.9
20260504021551 46 232 0.0 0.0 0.00 0.00 0.00 66 1015.9
20260504020050 47 232 0.0 0.0 0.00 0.00 0.00 66 1015.7
20260504014602 48 232 0.0 0.0 0.00 0.00 0.00 62 1015.6
20260504013053 49 232 0.0 0.0 0.00 0.00 0.00 59 1015.6
20260504011552 50 232 0.0 0.0 0.00 0.00 0.00 57 1015.4
20260504010056 51 232 0.0 0.0 0.00 0.00 0.00 52 1015.3
20260504004548 53 232 0.0 0.0 0.00 0.00 0.00 49 1015.2
20260504003052 54 232 0.0 0.0 0.00 0.00 0.00 47 1015.1
20260504001547 56 232 0.0 0.0 0.00 0.00 0.00 42 1014.9
20260504000049 57 232 0.0 0.0 0.00 0.00 0.00 41 1014.8
20260503234550 57 232 0.0 0.0 0.00 0.00 0.00 39 1014.7
20260503233046 58 232 0.0 0.0 0.00 0.00 0.00 39 1014.5
20260503231545 59 232 0.0 0.0 0.00 0.00 0.00 36 1014.4
20260503230045 59 232 0.0 0.0 0.00 0.00 0.00 37 1014.3
20260503224544 60 232 0.0 0.0 0.00 0.00 0.00 35 1014.4
20260503223044 60 232 0.0 0.0 0.00 0.00 0.00 34 1014.4
20260503221543 61 229 0.0 0.0 0.00 0.00 0.00 33 1014.5
20260503220049 62 233 0.0 0.0 0.00 0.00 0.00 30 1014.5
20260503214542 62 265 0.0 0.0 0.00 0.00 0.00 30 1014.7